Temp
12 12 12 12 13 14 15 15 15 16 17 18 18 19 20 21 22 23 28 23 23 24 24 26 27 28 28 29 29 30 30 31 32 33 33 35 33 35 34 33 34 34 33 33 32
12 12 12 12 13 14 14 15 15 16 17 18 19 19 20 21 23 28 23 23 23 24 26 28 29 29 30 30 30 30 31 32 33 32 32 33 33 33 33 33 34 34 34 31 30
12 12 12 13 13 14 15 16 16 17 18 18 19 20 20 21 27 26 23 23 23 23 26 27 28 29 29 29 30 31 30 33 31 31 31 31 32 33 32 31 33 34 34 34 30
12 12 13 14 14 15 15 16 17 18 18 19 19 20 21 21 28 25 23 23 23 23 26 27 29 29 29 29 30 28 31 31 30 30 29 30 31 31 32 32 33 34 33 33 32
14 14 14 15 15 16 16 17 17 18 19 19 20 20 21 28 27 23 23 23 23 24 26 28 29 29 29 30 30 29 31 31 30 30 29 30 29 30 30 32 33 33 33 31 33
15 15 15 16 16 16 17 17 18 18 19 20 20 21 24 28 23 23 23 24 24 26 26 27 28 28 28 29 29 30 29 29 30 30 30 30 30 30 31 33 32 32 32 33 32
15 16 16 16 17 17 18 18 18 19 19 20 20 20 27 25 23 24 23 24 24 25 27 26 26 27 28 29 29 28 28 30 31 32 30 30 29 30 32 33 32 33 34 33 33
16 16 17 17 17 17 18 18 19 19 20 20 20 22 26 22 23 23 24 25 24 24 25 25 25 27 27 28 28 28 29 29 31 30 30 28 29 32 33 32 32 32 33 34 33
16 16 17 17 18 18 18 19 19 20 20 20 22 25 26 23 25 24 24 25 25 25 25 25 25 26 27 27 29 31 30 30 31 30 29 28 28 31 32 31 30 31 32 32 33
16 16 17 17 18 18 19 19 19 20 20 20 22 25 26 26 24 23 24 24 25 26 26 26 27 26 28 28 28 29 29 30 30 31 30 29 29 30 31 31 31 31 32 32 33
17 17 17 18 19 19 18 19 23 24 24 23 24 25 25 24 23 25 24 25 26 26 27 27 26 28 30 28 28 28 27 28 29 30 29 28 28 29 30 31 31 31 32 32 32
17 18 18 18 19 19 19 24 22 22 24 23 23 24 23 23 25 26 24 25 26 26 27 27 27 26 26 25 25 26 27 27 29 30 28 28 28 29 30 31 31 31 31 31 31
18 18 18 19 19 20 22 20 19 20 26 24 24 25 24 24 25 25 25 25 26 26 26 26 28 25 24 25 26 27 27 27 27 27 27 28 29 31 33 33 31 29 27 27 26
19 18 19 19 20 21 21 18 18 19 27 24 25 24 25 24 24 24 24 24 26 25 25 26 26 24 25 25 26 26 26 25 25 25 26 28 26 29 31 31 27 26 25 24 24
19 18 19 19 21 23 19 18 18 21 28 24 25 24 25 25 25 24 23 24 24 25 24 27 26 24 24 25 25 24 24 24 24 25 25 26 26 31 30 29 27 24 23 23 23
19 18 19 20 21 17 17 18 20 26 27 24 24 24 25 25 25 25 25 24 24 23 25 25 26 24 23 24 24 24 24 26 26 25 24 28 28 29 29 27 24 24 23 23 22
17 18 18 18 21 17 18 22 26 27 24 23 23 23 23 23 24 23 23 22 22 22 26 25 25 24 23 23 25 24 24 24 26 24 26 28 26 28 29 24 22 22 22 22 21
18 18 18 17 17 17 20 25 26 23 23 22 22 23 23 22 23 23 23 23 20 20 22 23 24 23 23 22 21 22 22 22 22 25 26 25 24 28 28 25 23 23 22 22 20
18 20 20 18 18 18 24 27 23 22 21 21 22 23 23 21 22 23 21 20 18 18 20 21 23 23 23 21 21 23 22 20 20 22 21 24 26 28 28 23 21 20 20 20 20
21 22 20 18 18 21 26 20 20 19 19 21 22 21 22 21 22 22 22 17 17 17 18 20 18 21 21 21 22 21 20 19 20 19 21 24 23 23 21 19 19 19 19 20 19
20 24 20 19 19 26 25 20 18 18 19 20 20 21 20 19 20 20 21 16 16 16 18 18 18 20 21 20 20 20 19 19 19 18 18 18 19 23 19 18 18 18 19 19 18
22 24 19 20 25 24 22 19 15 17 18 18 18 18 18 18 19 19 19 17 15 15 16 16 15 16 18 20 19 18 18 17 15 15 16 15 15 19 18 18 18 18 18 18 17
23 22 20 21 25 21 18 16 16 17 16 17 17 17 17 17 17 17 17 15 14 14 15 15 16 15 19 17 17 17 17 17 16 14 12 12 14 18 18 18 18 18 18 17 17
23 24 22 21 21 22 20 18 16 15 15 16 15 16 16 16 16 17 16 16 14 14 13 13 14 14 15 16 16 15 15 15 14 13 13 14 14 16 17 17 17 17 17 16 16
20 17 16 21 19 19 19 18 17 16 15 15 15 15 15 16 16 16 15 15 16 14 14 14 13 15 15 15 14 14 14 14 14 14 13 14 14 16 17 17 17 16 16 15 15
20 19 18 17 17 19 15 17 17 15 15 16 15 14 14 14 15 14 14 14 14 14 13 14 11 12 11 13 13 13 14 14 14 14 15 15 15 17 17 17 16 15 15 15 15
15 14 19 11 17 19 17 16 15 14 14 14 14 13 14 14 14 14 14 13 13 12 12 12 12 11 10 13 13 12 15 15 15 15 15 14 15 16 15 15 14 14 14 14 15
Height
812 811 811 812 813 813 814 813 813 812 812 811 811 810 808 807 806 805 801 807 806 804 802 802 800 799 798 796 797 794 804 804 795 791 784 769 778 768 769 775 767 768 772 772 775
811 811 812 812 812 813 813 813 812 812 812 811 810 809 808 807 806 802 808 806 805 804 803 801 798 797 794 795 795 798 802 795 779 782 784 778 776 775 774 774 769 766 768 775 779
812 812 812 812 812 812 812 812 812 811 811 811 810 809 807 806 802 805 806 806 805 804 804 802 799 797 798 796 794 792 802 782 784 781 783 783 780 771 776 782 770 767 762 761 773
812 811 812 812 812 812 812 812 812 811 812 811 810 809 807 808 810 807 807 806 805 804 803 801 797 798 801 802 794 805 786 787 785 782 786 785 775 775 773 772 764 760 763 764 768
813 813 813 813 813 813 813 813 813 812 812 811 810 808 807 801 806 809 808 807 807 806 804 801 798 798 802 796 795 797 789 784 782 782 781 778 780 778 774 765 761 760 760 765 763
814 814 814 814 813 813 813 813 813 812 812 810 809 808 806 802 810 810 809 808 808 806 805 803 800 800 800 799 799 790 793 787 780 778 775 779 775 773 763 757 757 757 756 753 757
815 814 814 814 813 813 813 812 812 812 811 810 810 808 803 808 809 809 809 808 808 807 805 805 804 802 799 797 791 794 798 783 773 769 775 773 779 771 752 752 754 751 747 747 747
814 814 813 813 813 813 813 812 812 812 811 811 810 809 805 810 810 810 809 808 808 808 807 807 806 803 802 794 793 795 788 793 768 773 775 784 782 756 747 754 755 749 744 742 742
814 813 813 812 812 812 812 812 812 812 811 811 811 807 808 810 809 810 810 808 809 808 808 807 806 803 801 805 798 782 794 785 777 768 776 782 779 758 750 754 755 749 745 742 739
813 813 812 812 812 812 812 812 812 813 813 812 811 810 808 809 811 811 811 811 809 807 806 805 803 806 798 800 809 797 794 784 785 771 772 773 769 755 749 749 747 742 739 737 736
812 812 812 811 812 812 812 813 814 813 810 814 812 809 808 811 811 810 811 810 808 806 808 801 811 802 791 794 794 798 800 795 779 768 773 773 768 754 743 740 739 737 735 734 733
811 811 811 811 811 812 812 808 811 814 814 814 813 812 813 813 810 809 812 811 809 810 804 807 807 801 802 804 805 802 800 792 774 764 772 770 763 747 734 731 732 734 734 734 735
811 811 811 811 812 813 812 814 813 813 804 815 813 811 814 814 812 811 812 809 810 811 806 811 798 804 808 804 802 796 796 789 790 780 771 762 754 737 720 720 730 742 747 751 754
810 811 811 812 814 813 814 815 815 814 805 818 813 814 812 813 815 815 814 814 809 812 809 804 799 807 806 804 798 801 792 795 795 795 791 765 782 752 733 733 748 755 759 764 767
811 812 812 814 813 812 817 815 815 814 816 819 815 814 812 813 815 815 816 813 815 810 816 802 803 809 810 803 802 804 795 797 794 793 787 775 780 740 732 746 753 762 768 772 774
812 813 814 815 815 817 816 815 815 815 819 822 816 819 813 813 814 813 813 814 812 815 806 806 798 807 808 804 802 799 795 783 775 783 798 755 763 749 742 750 764 768 769 772 775
814 814 815 815 815 816 816 815 812 812 819 826 826 822 821 822 818 820 822 827 829 829 806 802 803 806 807 807 796 800 801 799 783 797 779 747 766 752 736 760 772 776 775 777 779
816 816 816 816 816 815 816 809 817 826 826 827 828 825 823 829 825 823 823 823 835 834 826 821 811 811 810 818 820 812 812 815 811 784 771 770 776 750 737 755 765 773 775 776 779
818 818 818 817 815 815 810 807 828 830 836 836 827 825 827 832 833 825 836 841 850 846 842 832 816 807 811 818 818 806 815 818 819 801 796 771 750 734 733 755 766 772 773 775 775
817 817 819 816 814 814 805 834 839 842 843 837 832 835 832 837 833 831 830 852 853 853 847 837 844 815 815 818 811 813 818 828 815 817 794 757 764 765 771 782 778 775 774 771 771
818 812 820 816 815 805 812 835 844 847 844 840 840 838 843 845 844 840 838 856 858 856 850 848 844 823 816 819 820 821 821 822 822 820 811 803 776 762 781 789 790 786 782 778 778
817 813 820 817 812 814 827 839 852 850 847 847 847 848 849 850 847 847 845 851 864 860 855 855 854 842 828 818 820 825 824 832 842 834 824 828 789 789 788 790 785 781 777 775 777
817 819 821 817 815 830 844 852 854 852 857 853 856 856 855 854 854 851 852 861 866 864 861 861 846 846 817 827 827 830 831 831 835 838 828 835 803 794 787 782 779 776 774 775 774
819 817 823 824 828 826 839 847 856 861 861 860 861 860 859 856 857 854 855 856 865 866 868 869 859 853 844 833 834 837 834 834 836 834 819 813 800 794 786 782 777 773 774 775 772
825 838 841 832 838 839 839 847 852 857 860 861 864 863 864 859 854 855 858 858 858 863 864 863 856 846 841 841 840 837 835 832 828 822 818 803 799 788 781 777 776 776 775 773 769
828 832 840 846 847 840 852 851 852 861 861 860 861 866 867 866 862 862 860 861 860 859 863 862 862 855 854 847 843 835 826 820 817 810 800 791 784 780 775 776 776 778 775 771 764
843 843 835 859 846 843 850 855 860 863 867 865 866 868 864 864 865 863 863 863 863 864 864 864 859 858 849 837 835 828 807 806 802 800 798 792 784 781 779 777 778 778 773 765 759
Wind_Speed
1 1 1 4 6 6 6 4 2 1 1 2 3 4 5 6 3 2 2 3 2 6 5 3 2 2 3 2 3 3 5 11 14 15 14 11 8 13 4 11 8 7 12 3 6
4 2 2 3 3 4 3 2 1 1 1 2 3 5 6 5 3 4 2 2 4 5 4 4 3 3 2 2 2 5 8 11 8 10 11 14 14 12 15 13 14 12 13 5 7
3 2 3 4 4 4 4 3 3 2 1 2 4 6 6 2 6 5 4 2 4 5 4 3 3 3 3 2 4 3 9 9 8 7 11 13 15 14 15 17 17 17 14 14 15
3 3 3 3 4 4 4 4 2 2 1 3 5 8 4 4 0 3 4 4 5 5 4 3 3 3 3 6 3 9 13 11 9 9 10 13 15 18 14 18 17 19 10 15 13
4 3 2 2 2 2 2 2 1 0 2 4 6 8 3 5 6 4 4 6 5 4 4 4 5 3 6 4 7 13 13 10 12 12 15 16 17 19 18 19 19 15 15 12 16
3 2 2 2 1 1 1 1 1 1 2 4 5 7 5 4 2 2 2 4 4 4 3 4 4 5 8 7 8 8 12 17 18 17 16 17 19 16 17 13 13 14 16 18 18
1 1 1 1 2 2 2 2 2 2 3 4 5 6 4 6 1 1 1 2 3 3 3 3 4 5 6 7 4 11 16 17 18 15 8 8 15 15 15 11 14 17 17 16 17
1 0 1 2 2 2 3 3 4 3 3 4 5 4 4 1 0 1 1 1 1 2 2 3 3 6 5 7 8 11 11 11 1 4 1 3 19 17 9 7 13 13 14 14 15
2 1 1 2 3 3 3 4 4 3 2 2 3 5 5 1 2 1 1 3 2 1 2 3 4 5 4 7 11 11 10 13 13 4 2 6 17 13 11 16 18 20 20 19 20
2 2 2 2 2 2 2 2 4 4 1 3 4 4 3 3 3 2 1 2 3 3 4 3 4 6 7 7 9 15 17 18 18 14 11 20 25 25 24 21 21 21 20 19 18
2 1 2 2 2 2 7 4 5 4 0 5 4 3 5 2 1 2 1 2 3 4 7 2 6 9 12 12 14 14 15 19 19 18 18 18 20 25 24 21 21 19 18 15 14
2 1 2 1 3 5 3 3 5 4 5 5 3 1 2 3 2 3 2 4 3 7 5 7 10 7 6 6 8 12 16 19 18 13 19 20 25 28 26 19 8 8 7 9 13
3 1 1 7 9 4 4 3 2 3 2 4 3 4 3 2 3 4 4 3 6 7 5 9 11 2 6 8 12 14 16 18 18 20 21 19 17 9 12 11 8 20 22 22 19
2 1 4 9 3 4 3 2 2 2 5 4 2 3 1 1 2 3 2 3 4 6 7 9 4 3 9 13 12 15 6 12 17 15 10 17 10 13 7 10 19 18 19 19 20
3 3 6 3 4 0 2 3 2 3 4 3 4 1 2 3 2 3 2 3 7 9 4 2 7 11 12 10 8 12 10 15 17 17 18 16 8 3 9 10 14 15 17 18 20
6 6 8 3 4 2 4 1 2 4 2 4 2 3 3 5 3 3 1 2 4 7 9 13 10 5 9 12 8 11 13 19 20 11 8 12 11 6 5 10 13 12 14 16 21
12 7 3 2 2 4 2 4 5 4 3 4 2 5 3 5 2 5 3 10 8 8 2 12 1 5 7 11 5 7 15 7 6 6 7 6 9 12 9 17 15 15 18 22 24
10 10 10 9 4 2 4 5 5 4 5 2 3 3 3 9 3 6 7 1 12 12 9 6 3 2 9 7 8 15 8 6 8 9 16 22 11 8 7 16 13 19 20 22 22
4 3 6 11 5 2 5 4 6 5 4 6 2 3 3 1 6 6 7 5 6 11 8 6 4 4 12 6 7 6 7 9 11 19 17 11 15 17 6 22 28 30 27 25 23
0 2 7 12 4 5 4 5 4 5 5 3 3 4 3 6 5 6 2 5 3 7 8 4 9 8 2 7 10 8 6 6 6 7 11 12 20 17 17 28 30 30 30 28 26
3 3 8 7 4 4 1 5 7 6 4 5 3 2 2 4 5 5 3 4 2 5 6 8 7 4 10 11 12 13 13 8 9 9 9 16 13 13 29 22 28 27 26 25 21
2 1 12 8 1 3 4 4 2 3 4 4 4 5 3 3 4 3 2 2 3 6 7 4 6 9 17 16 9 8 9 1 4 11 15 16 25 23 21 28 24 25 24 22 22
2 2 8 6 1 4 6 5 5 2 5 2 2 4 2 2 4 2 2 5 1 6 6 7 2 7 5 5 5 4 8 9 16 15 23 17 17 23 26 24 25 25 23 21 22
1 1 3 6 4 8 8 4 4 4 4 3 2 0 2 3 2 4 4 1 1 7 9 6 9 12 10 15 17 21 22 21 20 13 21 19 29 26 25 25 24 22 23 23 22
4 3 2 3 5 6 4 2 5 2 2 1 2 1 3 3 6 4 2 6 7 2 5 4 9 13 16 18 20 23 23 23 24 24 23 26 28 26 24 22 22 23 22 23 24
2 2 4 4 2 3 1 3 2 2 2 1 3 1 4 5 6 8 10 9 7 3 2 6 9 14 18 19 20 24 23 25 24 25 26 26 27 24 22 22 22 21 23 26 24
5 2 3 0 1 2 2 4 4 1 2 2 1 5 7 7 8 10 10 11 12 12 12 11 6 8 10 10 19 18 12 12 18 22 21 24 25 22 21 21 21 22 25 26 24
Wind_Direction
198 149 164 208 221 239 253 260 267 339 42 33 9 348 340 338 356 239 89 14 346 346 4 313 296 321 250 245 277 277 262 270 280 289 299 306 287 288 286 286 265 233 273 22 139
79 75 145 171 189 202 207 215 176 109 66 27 349 341 335 337 255 86 322 12 3 14 320 350 5 319 222 254 233 254 256 274 320 316 305 306 302 295 293 273 266 240 260 186 205
111 140 143 155 171 181 185 165 154 126 102 3 345 334 328 314 235 52 41 2 350 357 321 323 306 312 273 274 214 248 259 299 290 301 306 292 285 279 265 271 275 284 281 212 197
88 116 135 157 166 173 168 155 164 139 26 354 344 339 317 263 59 63 12 9 10 345 301 295 262 260 267 251 217 262 254 277 291 295 288 282 290 280 273 272 282 291 292 300 199
71 83 101 127 154 167 157 159 175 42 354 351 348 344 307 207 74 23 17 357 357 352 356 329 285 303 268 283 274 251 278 291 284 277 270 277 271 274 280 281 282 269 274 255 269
89 103 127 136 152 173 171 200 225 275 329 342 344 346 265 198 50 42 10 4 17 353 6 329 353 344 290 281 272 339 288 280 276 272 274 274 274 273 262 260 269 261 260 254 240
98 133 169 187 212 218 226 236 246 259 303 324 338 339 258 74 79 121 43 32 21 359 331 3 333 287 349 279 314 276 284 283 270 254 285 314 273 244 258 254 265 264 261 255 249
61 150 229 245 251 256 255 252 252 267 291 307 322 304 58 104 285 192 273 312 330 323 296 308 306 289 265 317 262 264 279 276 194 154 219 259 282 292 329 290 276 275 279 277 264
5 329 275 253 248 250 255 260 259 250 259 290 304 294 107 129 124 4 282 313 315 275 301 276 277 292 248 258 283 223 277 294 302 53 277 238 290 295 300 292 273 275 277 277 284
328 322 308 291 269 268 298 142 113 79 336 269 275 237 150 73 42 2 65 332 304 292 255 249 249 264 234 257 281 321 305 301 298 302 250 287 281 285 288 280 278 280 281 282 280
260 264 272 258 204 181 128 138 193 160 108 13 23 56 86 48 205 87 20 271 279 258 276 133 276 263 318 325 305 302 289 287 291 300 298 291 287 288 286 283 279 279 279 286 292
251 247 290 217 157 137 176 281 36 1 106 49 66 85 10 320 268 133 287 276 268 287 297 245 253 29 347 317 299 290 289 288 294 305 319 301 292 288 282 276 293 310 322 342 2
236 240 127 127 122 104 95 76 345 320 230 83 60 45 30 305 44 54 298 339 291 284 282 288 320 348 302 301 291 287 287 300 304 313 293 285 290 338 322 198 84 54 50 44 37
207 148 143 152 156 148 78 355 319 300 217 96 131 79 183 319 137 2 359 309 236 303 314 277 62 312 305 298 312 291 350 307 301 309 306 340 291 321 78 107 73 59 50 37 23
159 132 153 164 96 120 5 319 285 248 244 60 87 27 40 324 14 98 13 247 292 307 290 280 317 328 306 311 335 290 328 299 289 284 296 281 256 179 85 99 79 57 44 30 18
120 125 103 102 85 46 335 293 243 225 160 116 64 354 245 39 63 3 351 235 294 287 252 270 292 293 330 307 295 300 292 292 268 263 265 254 221 252 98 44 69 43 20 8 4
89 104 98 40 61 332 324 222 222 271 160 89 24 350 319 5 49 9 40 44 28 329 227 319 47 78 354 333 282 314 330 302 253 194 250 90 315 258 22 83 58 17 2 358 348
68 73 72 42 342 306 227 231 257 39 30 34 344 313 349 356 80 351 324 301 42 342 295 333 201 186 30 344 314 304 294 285 292 288 300 323 268 242 86 103 30 357 344 345 352
32 96 46 350 353 245 249 237 25 27 2 349 269 260 126 96 328 322 72 37 32 15 353 326 240 350 342 335 300 22 286 345 288 278 270 247 259 252 286 360 347 339 341 338 344
177 130 28 340 331 243 248 69 103 45 348 301 341 348 323 22 325 355 21 45 22 16 336 37 292 277 60 329 252 262 14 304 250 282 283 283 308 297 359 341 333 338 333 332 342
250 217 3 340 268 241 42 69 113 56 14 360 14 315 44 352 332 326 34 94 13 2 316 324 241 251 267 288 297 292 285 251 270 265 280 299 278 344 334 336 325 315 317 318 337
312 223 350 334 201 35 78 70 5 39 37 61 48 38 9 351 302 287 297 7 37 339 331 18 307 286 287 302 310 268 248 296 297 282 288 293 273 300 324 312 310 315 315 326 329
56 49 9 311 351 98 116 93 62 70 36 53 92 13 332 302 301 250 282 106 42 344 11 4 245 304 175 161 133 195 195 272 293 282 271 273 275 298 295 306 314 312 327 327 321
230 182 72 57 25 110 130 122 117 50 75 49 88 273 292 271 249 297 267 81 180 291 312 269 246 248 267 301 307 291 290 294 285 273 281 272 289 293 301 306 309 319 322 320 319
350 72 349 54 58 91 82 103 137 125 115 199 132 16 359 283 282 250 294 298 292 113 264 272 274 278 287 298 293 289 290 286 278 278 275 290 284 290 299 311 319 318 321 321 309
17 140 93 86 78 113 98 89 149 122 288 158 277 162 300 281 302 295 310 299 282 300 274 294 274 302 291 284 278 277 276 275 277 274 274 286 290 298 318 314 312 317 320 315 310
50 56 302 151 103 244 63 124 143 157 121 329 335 298 282 302 311 297 287 275 270 275 285 285 277 301 287 303 306 289 270 279 303 299 294 292 301 311 306 316 309 312 309 312 315